Regional Weather Roundup
Issued by NWS

Home | Current Version | Previous Version | Text Only | Print | Product List | Glossary On
Versions: 1 2 3 4 5 6 7 8 9 10 11 12 13 14 15 16 17 18 19 20 21 22 23 24 25 26 27 28
000
ASUS44 KBMX 311710
RWRAL

ALABAMA REGIONAL WEATHER ROUNDUP
NATIONAL WEATHER SERVICE BIRMINGHAM AL
1200 PM CDT TUE MAY 31 2016

NOTE: "FAIR" INDICATES FEW OR NO CLOUDS BELOW 12,000 FEET
WITH NO SIGNIFICANT WEATHER AND/OR OBSTRUCTIONS TO VISIBILITY.

THE REMARK "TC" DENOTES TEMPERATURE IN DEGREES CELSIUS.

ALZ001>011-014-016>018-020-311800-
NORTH ALABAMA

CITY           SKY/WX    TMP DP  RH WIND       PRES   REMARKS
MUSCLE SHOALS  MOSUNNY   87  64  46 W13       29.99R
HUNTSVILLE     MOSUNNY   88  61  40 VRB6      29.97F
DECATUR        SUNNY     87  62  43 S5        29.97F
HALEYVILLE     FAIR      84  66  54 W12       30.02R
GADSDEN        MOSUNNY   88  65  46 SE7       29.96F HX  90
$$

ALZ012-013-022-023-030>036-040>044-311800-
WEST CENTRAL ALABAMA

CITY           SKY/WX    TMP DP  RH WIND       PRES   REMARKS
TUSCALOOSA     MOSUNNY   90  61  37 S5        29.94F HX  90
$$

ALZ015-024>027-033>036-040>044-311800-
CENTRAL ALABAMA

CITY           SKY/WX    TMP DP  RH WIND       PRES   REMARKS
BIRMINGHAM     MOSUNNY   92  59  33 CALM      29.98F HX  91
MONTGOMERY     SUNNY     93  63  36 VRB5      29.94F HX  94
SHELBY CO ARPT MOSUNNY   89  63  41 W5        29.96F HX  90
MAXWELL AFB    SUNNY     91  66  42 VRB5      29.94F HX  93
GREENVILLE     FAIR      93  59  31 VRB3      29.95S HX  92
$$

ALZ019-021-028-029-037-038-045>048-311800-
EAST CENTRAL ALABAMA

CITY           SKY/WX    TMP DP  RH WIND       PRES   REMARKS
ANNISTON       SUNNY     89  60  37 VRB6      29.96F
ALEXANDER CITY SUNNY     88  71  57 CALM      29.97F HX  93
AUBURN         MOSUNNY  N/A N/A N/A VRB5      29.98F
$$

ALZ051>064-311800-
SOUTHWEST ALABAMA

CITY           SKY/WX    TMP DP  RH WIND       PRES   REMARKS
MOBILE         PTSUNNY   87  70  56 CALM      29.96F HX  92
BROOKLEY FIELD MOSUNNY   85  73  67 SE7       29.96F HX  91
EVERGREEN      SUNNY     93  66  40 CALM      29.95S HX  96
$$

ALZ049-050-065>069-311800-
SOUTHEAST ALABAMA

CITY           SKY/WX    TMP DP  RH WIND       PRES   REMARKS
DOTHAN         MOSUNNY   90  61  37 SE7       29.98F HX  90
OZARK          MOSUNNY   90  64  42 NW3       29.94F HX  91
TROY           MOSUNNY   90  65  43 VRB3      29.95F HX  92
EUFAULA        FAIR      93  64  38 N6        29.93F HX  94
$$




USA.gov is the U.S. government's official web portal to all federal, state and local government web resources and services.